Total_Precipitation_Accumulation
0.68 0.74 0.86 1.04 1.24 1.29 1.33 1.48 1.54 1.70 1.92 2.15 2.31 2.33 2.37 2.31 2.28 2.19 2.11 2.05 2.09 2.11 2.12 2.07 2.19 2.24 2.16 2.04 1.96 1.87 1.80 1.66 1.51 1.59 1.66 1.53 1.25 1.06 0.97 0.95 0.93 0.83 0.71
0.69 0.80 0.90 1.04 1.28 1.36 1.36 1.48 1.60 1.70 1.74 1.87 2.04 2.14 2.28 2.34 2.31 2.23 2.22 2.09 2.01 2.00 2.09 2.08 2.01 2.03 2.05 2.02 1.94 1.88 1.83 1.79 1.65 1.65 1.76 1.77 1.67 1.33 1.00 0.91 0.90 0.89 0.86
0.72 0.78 0.88 1.01 1.28 1.45 1.46 1.48 1.56 1.71 1.77 1.88 2.09 2.22 2.43 2.51 2.55 2.37 2.23 2.16 2.11 2.01 1.98 2.07 2.08 1.99 1.95 1.93 1.89 1.80 1.73 1.73 1.62 1.47 1.67 1.75 1.53 1.24 1.04 0.92 0.83 0.81 0.89
0.73 0.80 0.82 0.95 1.14 1.32 1.45 1.52 1.63 1.74 1.76 1.94 2.12 2.14 2.30 2.36 2.30 2.19 2.11 2.05 2.07 2.05 1.98 1.97 2.04 2.07 1.97 1.85 1.82 1.82 1.77 1.79 1.80 1.60 1.40 1.38 1.28 1.28 1.12 0.97 0.92 0.87 0.85
0.69 0.77 0.80 0.81 0.95 1.11 1.31 1.47 1.66 1.80 1.82 1.86 2.04 2.10 2.06 2.14 2.25 2.30 2.24 2.14 2.09 2.05 1.99 1.98 1.99 1.99 1.96 1.83 1.77 1.80 1.83 1.84 1.83 1.74 1.52 1.34 1.15 1.09 1.19 1.02 0.93 1.01 0.98
0.74 0.77 0.76 0.75 0.87 1.03 1.21 1.38 1.57 1.72 1.82 1.80 1.90 2.07 2.04 2.02 2.13 2.31 2.37 2.29 2.18 2.10 1.96 1.87 1.89 1.86 1.78 1.73 1.69 1.68 1.66 1.70 1.74 1.71 1.62 1.53 1.44 1.22 1.20 1.13 0.93 0.93 0.95
0.76 0.81 0.70 0.74 0.80 0.92 1.10 1.26 1.47 1.57 1.67 1.72 1.77 1.84 1.98 1.96 1.95 2.00 2.10 2.26 2.22 2.09 1.98 1.89 1.79 1.76 1.68 1.60 1.58 1.60 1.58 1.53 1.57 1.61 1.56 1.47 1.37 1.27 1.30 1.40 1.27 1.11 0.98
0.70 0.75 0.72 0.74 0.77 0.81 0.94 1.11 1.25 1.43 1.60 1.68 1.70 1.73 1.82 1.94 1.88 1.87 1.83 1.95 2.03 1.91 1.83 1.87 1.78 1.70 1.68 1.65 1.62 1.59 1.57 1.56 1.49 1.42 1.42 1.45 1.36 1.33 1.44 1.56 1.66 1.59 1.22
0.75 0.73 0.73 0.76 0.75 0.81 0.88 1.02 1.11 1.25 1.47 1.65 1.70 1.71 1.75 1.82 1.83 1.80 1.79 1.80 1.83 1.84 1.82 1.81 1.80 1.73 1.75 1.79 1.79 1.74 1.61 1.57 1.55 1.48 1.40 1.41 1.38 1.35 1.37 1.44 1.63 1.94 1.78
0.83 0.80 0.76 0.82 0.80 0.82 0.87 0.93 1.07 1.16 1.30 1.52 1.72 1.74 1.70 1.68 1.76 1.82 1.86 1.82 1.78 1.81 1.82 1.82 1.82 1.77 1.71 1.77 1.83 1.79 1.69 1.67 1.61 1.60 1.58 1.45 1.37 1.40 1.44 1.52 1.55 1.65 1.82
0.85 0.80 0.73 0.75 0.80 0.82 0.91 0.95 1.03 1.13 1.23 1.33 1.52 1.67 1.69 1.70 1.74 1.77 1.75 1.79 1.78 1.78 1.76 1.71 1.74 1.80 1.78 1.72 1.78 1.74 1.68 1.68 1.61 1.58 1.61 1.51 1.41 1.52 1.57 1.64 1.67 1.62 1.67
0.75 0.75 0.69 0.70 0.76 0.85 0.93 1.01 1.04 1.03 1.12 1.22 1.35 1.51 1.64 1.69 1.72 1.70 1.71 1.76 1.77 1.75 1.69 1.65 1.66 1.70 1.73 1.71 1.74 1.72 1.67 1.66 1.63 1.58 1.60 1.59 1.51 1.52 1.56 1.67 1.68 1.60 1.53
0.72 0.75 0.76 0.73 0.77 0.85 0.92 0.99 1.05 0.99 1.02 1.19 1.30 1.44 1.56 1.58 1.61 1.57 1.62 1.78 1.86 1.83 1.70 1.64 1.66 1.69 1.74 1.72 1.67 1.75 1.73 1.64 1.57 1.54 1.59 1.62 1.62 1.55 1.50 1.59 1.64 1.57 1.52
0.65 0.74 0.85 0.81 0.76 0.80 0.85 0.87 0.98 1.02 1.02 1.07 1.23 1.36 1.49 1.47 1.44 1.46 1.48 1.61 1.77 1.85 1.76 1.63 1.60 1.67 1.79 1.80 1.77 1.85 1.81 1.69 1.56 1.45 1.45 1.54 1.67 1.69 1.68 1.69 1.65 1.67 1.76
0.57 0.73 0.83 0.83 0.85 0.87 0.88 0.85 0.88 0.99 1.06 1.03 1.12 1.20 1.33 1.42 1.40 1.38 1.43 1.54 1.65 1.66 1.69 1.70 1.63 1.65 1.89 2.11 2.24 2.12 1.84 1.65 1.56 1.39 1.31 1.40 1.69 1.91 2.08 2.12 1.95 1.96 2.14
0.53 0.60 0.69 0.76 0.87 0.95 0.97 0.94 0.91 0.96 1.04 1.02 1.07 1.12 1.26 1.39 1.40 1.34 1.40 1.55 1.67 1.66 1.64 1.68 1.66 1.62 1.81 2.26 2.48 2.10 1.71 1.55 1.51 1.45 1.31 1.34 1.62 1.82 2.00 2.17 2.12 2.13 2.32
0.49 0.50 0.61 0.75 0.84 0.94 0.96 0.98 0.95 0.98 1.03 1.04 1.07 1.13 1.26 1.33 1.38 1.37 1.41 1.53 1.65 1.67 1.65 1.63 1.63 1.60 1.67 2.08 2.29 2.06 1.70 1.54 1.44 1.37 1.34 1.37 1.47 1.64 1.67 1.85 1.93 1.91 2.06
0.52 0.52 0.60 0.72 0.76 0.84 0.89 0.93 0.89 1.01 1.08 1.07 1.07 1.13 1.22 1.25 1.35 1.39 1.42 1.54 1.62 1.59 1.59 1.60 1.57 1.55 1.62 1.97 2.21 2.05 1.73 1.62 1.52 1.46 1.36 1.30 1.34 1.49 1.68 1.79 1.79 1.68 1.71
0.56 0.58 0.62 0.70 0.70 0.77 0.83 0.88 0.85 0.93 1.02 1.06 1.03 1.07 1.16 1.21 1.29 1.35 1.42 1.52 1.62 1.58 1.52 1.51 1.56 1.52 1.55 1.90 2.24 2.12 1.76 1.69 1.58 1.54 1.44 1.31 1.26 1.50 1.72 1.68 1.64 1.54 1.57
0.49 0.57 0.59 0.63 0.65 0.71 0.75 0.79 0.84 0.87 0.96 1.02 0.95 1.00 1.09 1.15 1.25 1.30 1.36 1.44 1.47 1.50 1.50 1.46 1.48 1.47 1.45 1.73 2.16 2.27 1.80 1.68 1.58 1.56 1.49 1.55 1.51 1.64 1.67 1.55 1.62 1.73 1.58
0.48 0.52 0.54 0.58 0.65 0.69 0.70 0.73 0.82 0.89 0.92 1.00 0.94 0.98 1.03 1.09 1.20 1.29 1.29 1.36 1.42 1.44 1.50 1.50 1.48 1.45 1.47 1.58 1.89 2.25 1.95 1.75 1.59 1.57 1.56 1.48 1.67 1.70 1.67 1.63 1.59 1.77 1.66
0.50 0.51 0.53 0.57 0.61 0.64 0.68 0.70 0.75 0.83 0.90 0.95 0.95 1.02 1.07 1.09 1.14 1.24 1.24 1.26 1.37 1.44 1.48 1.51 1.56 1.53 1.50 1.56 1.78 2.04 2.01 1.88 1.66 1.57 1.45 1.42 1.63 1.67 1.70 1.65 1.69 1.75 1.71
0.55 0.54 0.56 0.55 0.58 0.63 0.69 0.75 0.78 0.80 0.90 0.94 0.95 1.02 1.11 1.13 1.16 1.19 1.21 1.24 1.31 1.40 1.44 1.45 1.46 1.49 1.44 1.53 1.82 1.80 1.83 1.85 1.74 1.71 1.74 1.67 1.74 1.75 1.64 1.60 1.65 1.59 1.49
0.59 0.60 0.61 0.60 0.61 0.64 0.71 0.79 0.83 0.81 0.88 0.93 0.94 1.00 1.07 1.12 1.16 1.14 1.10 1.12 1.22 1.35 1.38 1.38 1.34 1.31 1.34 1.53 1.74 1.66 1.62 1.71 1.80 1.86 1.84 1.81 1.83 1.78 1.70 1.62 1.49 1.37 1.39
0.62 0.63 0.65 0.66 0.68 0.68 0.74 0.80 0.83 0.83 0.88 0.87 0.86 0.93 0.96 1.06 1.17 1.17 1.12 1.11 1.12 1.31 1.47 1.42 1.37 1.41 1.52 1.67 1.84 1.78 1.72 1.76 1.83 1.92 1.97 1.90 1.85 1.83 1.69 1.49 1.33 1.28 1.36
0.63 0.64 0.65 0.68 0.74 0.74 0.76 0.80 0.83 0.82 0.83 0.85 0.83 0.86 0.90 0.96 1.06 1.11 1.16 1.28 1.27 1.30 1.32 1.34 1.43 1.41 1.54 1.65 1.67 1.72 1.78 1.88 1.96 2.02 1.98 1.78 1.58 1.50 1.44 1.36 1.29 1.24 1.24